EW9065 Weather Reports


Display with metric or nautical units.
time (UTC)temp
F
wind
direction
speed
MPH
gust
MPH
rain 1hr
in
rain 24hr
in
rain mn
in
humidity
%
barometer
mb
20210514034617 48 151 0.0 0.0 0.00 0.00 0.00 64 1015.5
20210514033024 49 151 0.0 0.0 0.00 0.00 0.00 63 1015.5
20210514031548 49 151 0.0 0.0 0.00 0.00 0.00 64 1015.5
20210514030042 50 151 0.0 0.0 0.00 0.00 0.00 64 1015.3
20210514024524 50 151 0.0 0.0 0.00 0.00 0.00 61 1015.3
20210514023028 50 151 0.0 0.0 0.00 0.00 0.00 60 1015.2
20210514021534 51 151 0.0 0.0 0.00 0.00 0.00 62 1015.2
20210514020030 51 151 0.0 0.0 0.00 0.00 0.00 61 1015.1
20210514014620 52 151 0.0 0.0 0.00 0.00 0.00 58 1015.0
20210514013046 52 151 0.0 0.0 0.00 0.00 0.00 57 1014.9
20210514011517 53 151 0.0 0.0 0.00 0.00 0.00 57 1014.8
20210514010047 54 151 0.0 0.0 0.00 0.00 0.00 54 1014.6
20210514004516 55 151 0.0 0.0 0.00 0.00 0.00 52 1014.5
20210514003018 56 151 0.0 0.0 0.00 0.00 0.00 51 1014.3
20210514001533 57 151 0.0 0.0 0.00 0.00 0.00 53 1014.2
20210514000033 58 151 0.0 0.0 0.00 0.00 0.00 53 1014.2
20210513234518 60 151 0.0 0.0 0.00 0.00 0.00 47 1014.2
20210513233013 61 151 0.0 0.0 0.00 0.00 0.00 43 1014.0
20210513231550 63 151 0.0 0.0 0.00 0.00 0.00 42 1013.9
20210513230029 64 150 0.0 0.0 0.00 0.00 0.00 37 1013.8
20210513224521 66 149 0.0 0.0 0.00 0.00 0.00 33 1013.7
20210513223024 67 110 0.0 0.0 0.00 0.00 0.00 32 1013.7
20210513221514 67 110 0.0 0.0 0.00 0.00 0.00 26 1013.6
20210513220010 67 84 0.0 0.0 0.00 0.00 0.00 32 1013.7
20210513214534 67 88 0.0 0.0 0.00 0.00 0.00 28 1013.7
20210513213006 66 94 0.0 0.0 0.00 0.00 0.00 29 1013.9
20210513211518 67 141 0.0 0.0 0.00 0.00 0.00 26 1014.0
20210513210004 67 121 0.0 0.0 0.00 0.00 0.00 25 1014.0
20210513204505 68 180 0.0 0.0 0.00 0.00 0.00 26 1014.0
20210513203010 69 206 0.0 0.0 0.00 0.00 0.00 24 1014.0
20210513201748 70 206 0.0 0.0 0.00 0.00 0.00 25 1014.1
20210513200148 68 142 0.0 0.0 0.00 0.00 0.00 25 1014.3
20210513194705 68 205 0.0 0.0 0.00 0.00 0.00 28 1014.3
20210513193205 69 244 0.0 0.0 0.00 0.00 0.00 32 1014.5
20210513191637 70 9 0.0 0.0 0.00 0.00 0.00 25 1014.6
20210513190220 70 157 0.0 0.0 0.00 0.00 0.00 25 1014.8
20210513184635 70 156 0.0 0.0 0.00 0.00 0.00 24 1014.9
20210513183121 68 103 0.0 0.0 0.00 0.00 0.00 27 1015.1
20210513181701 67 51 0.0 0.0 0.00 0.00 0.00 28 1015.2
20210513180112 69 185 0.0 0.0 0.00 0.00 0.00 28 1015.1
20210513174614 66 70 0.0 0.0 0.00 0.00 0.00 31 1015.4
20210513173110 67 56 0.0 0.0 0.00 0.00 0.00 27 1015.4
20210513171607 65 193 0.0 0.0 0.00 0.00 0.00 28 1015.6
20210513170058 66 254 0.0 0.0 0.00 0.00 0.00 30 1015.6
20210513164620 65 244 0.0 0.0 0.00 0.00 0.00 28 1015.7
20210513163045 67 134 0.0 0.0 0.00 0.00 0.00 28 1015.8
20210513161603 65 228 0.0 0.0 0.00 0.00 0.00 31 1015.9
20210513160036 67 117 0.0 0.0 0.00 0.00 0.00 31 1016.0
20210513154639 66 89 0.0 0.0 0.00 0.00 0.00 32 1016.1
20210513153125 67 294 0.0 0.0 0.00 0.00 0.00 31 1016.1
20210513151531 66 72 0.0 0.0 0.00 0.00 0.00 30 1016.2
20210513150047 66 12 0.0 0.0 0.00 0.00 0.00 29 1016.3
20210513144533 65 194 0.0 0.0 0.00 0.00 0.00 29 1016.3
20210513143121 64 339 0.0 0.0 0.00 0.00 0.00 32 1016.3
20210513141600 63 105 0.0 0.0 0.00 0.00 0.00 36 1016.3
20210513140028 62 276 0.0 0.0 0.00 0.00 0.00 40 1016.3
20210513134507 61 107 0.0 0.0 0.00 0.00 0.00 40 1016.3
20210513133012 59 161 0.0 0.0 0.00 0.00 0.00 44 1016.5
20210513131719 58 254 0.0 0.0 0.00 0.00 0.00 48 1016.5
20210513130112 57 266 0.0 0.0 0.00 0.00 0.00 49 1016.6
20210513124633 56 241 0.0 0.0 0.00 0.00 0.00 53 1016.6
20210513123141 55 120 0.0 0.0 0.00 0.00 0.00 54 1016.6
20210513121556 53 253 0.0 0.0 0.00 0.00 0.00 55 1016.7
20210513120115 52 155 0.0 0.0 0.00 0.00 0.00 62 1016.7
20210513114605 51 226 0.0 1.0 0.00 0.00 0.00 64 1016.6
20210513113059 49 163 0.0 0.0 0.00 0.00 0.00 66 1016.5
20210513111649 48 161 0.0 1.0 0.00 0.00 0.00 68 1016.5
20210513110053 47 185 0.0 1.0 0.00 0.00 0.00 72 1016.5
20210513104538 45 112 0.0 1.0 0.00 0.00 0.00 75 1016.4
20210513103118 44 112 0.0 1.0 0.00 0.00 0.00 78 1016.3
20210513101546 43 112 0.0 1.0 0.00 0.00 0.00 80 1016.2
20210513100103 43 112 0.0 0.0 0.00 0.00 0.00 81 1016.1
20210513094544 42 99 0.0 0.0 0.00 0.00 0.00 81 1016.1
20210513093024 42 99 0.0 0.0 0.00 0.00 0.00 80 1015.9
20210513091523 42 99 0.0 0.0 0.00 0.00 0.00 81 1015.9
20210513090022 43 99 0.0 0.0 0.00 0.00 0.00 80 1015.8
20210513084535 43 99 0.0 0.0 0.00 0.00 0.00 79 1015.9
20210513083034 44 99 0.0 0.0 0.00 0.00 0.00 79 1015.9
20210513081523 44 99 0.0 0.0 0.00 0.00 0.00 77 1015.9
20210513080013 44 99 0.0 0.0 0.00 0.00 0.00 76 1015.8
20210513074554 45 99 0.0 0.0 0.00 0.00 0.00 76 1015.8
20210513073010 45 99 0.0 0.0 0.00 0.00 0.00 76 1015.8
20210513071510 45 99 0.0 0.0 0.00 0.00 0.00 75 1015.7
20210513070029 46 99 0.0 0.0 0.00 0.00 0.00 74 1015.7
20210513064520 46 99 0.0 0.0 0.00 0.00 0.00 74 1015.8
20210513063003 46 99 0.0 0.0 0.00 0.00 0.00 73 1015.7
20210513060117 47 99 0.0 0.0 0.00 0.00 0.00 73 1015.9
20210513054914 47 99 0.0 0.0 0.00 0.00 0.00 73 1015.9
20210513053223 47 99 0.0 0.0 0.00 0.00 0.00 72 1016.0
20210513051627 47 99 0.0 0.0 0.00 0.00 0.00 73 1016.0
20210513050201 47 99 0.0 0.0 0.00 0.00 0.00 74 1016.1
20210513044723 47 99 0.0 0.0 0.00 0.00 0.00 73 1016.1
20210513043154 47 99 0.0 0.0 0.00 0.00 0.00 73 1016.2
20210513041708 48 99 0.0 0.0 0.00 0.00 0.00 71 1016.2
20210513040140 49 99 0.0 0.0 0.00 0.00 0.00 69 1016.2